Dewpoint
8 8 8 7 9 7 7 4 4 7 9 8 8 10 12 13 11 10 14 15 13 12 12 12 10 10 10 10 4 10 13 4 6 11 12 12 13 12 12 12 10 1 -6 -9 -3 2 1 3 4
7 8 8 8 9 8 6 2 1 2 7 8 9 9 11 13 15 14 15 14 13 12 12 12 11 11 10 9 4 12 13 4 -4 8 12 13 14 14 13 12 6 -7 -8 -4 -0 -0 -0 1 2
8 8 7 9 9 8 4 2 0 2 5 7 9 9 10 13 14 14 14 13 13 12 12 12 11 11 10 6 7 13 12 -1 -7 -2 11 14 14 14 12 10 -1 -7 -5 -1 -1 -0 0 -0 -0
8 7 7 9 9 6 2 -1 -0 5 7 6 7 7 9 10 13 14 15 12 12 13 12 12 11 12 10 6 10 12 3 0 -11 -12 4 13 14 14 11 6 -6 -5 -4 0 1 1 1 2 1
9 7 8 9 8 6 2 1 -1 4 7 6 6 9 10 13 13 14 16 13 11 12 12 12 12 12 10 7 13 12 5 -2 -9 -7 -10 8 11 10 6 -4 -6 -5 -4 0 2 2 2 2 2
8 8 9 9 8 6 4 2 1 1 3 6 5 7 9 12 11 13 15 14 11 12 12 12 13 11 9 6 13 12 5 -0 -7 -8 -7 -6 2 -1 -6 -6 -5 -4 -3 -1 1 2 2 2 2
7 7 8 7 7 6 5 3 2 -1 0 5 5 5 11 10 11 12 14 15 12 12 12 12 12 11 9 4 12 11 9 3 -4 -7 -6 -7 -7 -6 -6 -5 -4 -3 -3 -2 -2 -1 -0 0 1
7 8 7 7 7 7 3 2 1 1 -0 3 5 10 12 10 10 10 12 14 12 11 12 12 13 12 10 3 8 13 11 9 0 -4 -6 -5 -5 -5 -4 -3 -2 -2 -2 -1 -1 -1 -0 0 0
6 7 6 6 7 6 3 3 2 3 4 7 6 6 7 10 11 10 9 12 12 11 12 12 13 12 10 5 5 13 12 11 8 1 -3 -4 -4 -4 -3 -2 -1 -1 -1 -0 0 0 0 1 1
5 6 4 2 3 4 4 4 2 5 9 10 10 12 8 9 11 9 10 11 9 12 12 13 13 12 11 7 2 9 13 12 12 7 -0 -2 -2 -2 -2 -2 -2 -1 -1 -1 -0 -0 0 0 1
5 5 2 2 3 5 6 6 5 7 9 10 9 12 8 7 9 7 7 7 7 11 13 13 13 13 11 9 2 4 11 13 13 10 3 1 -0 -2 -2 -1 -1 -1 -1 -1 -0 -0 -0 1 1
5 3 3 4 3 4 5 6 7 8 6 8 8 8 8 6 6 4 4 4 6 11 13 14 14 13 12 12 5 0 5 11 14 11 6 4 2 2 0 0 0 -1 -1 -1 -1 -0 1 2 4
4 3 4 3 3 5 4 5 7 7 5 7 9 11 9 7 6 5 3 5 7 9 10 10 12 13 13 12 9 1 5 6 9 12 11 8 5 3 3 3 1 -1 -1 -1 -1 0 3 5 5
2 3 3 3 4 4 6 5 8 6 8 8 9 10 10 8 9 10 6 7 9 7 8 7 7 11 11 12 11 8 2 3 9 9 12 9 4 6 6 4 1 2 1 2 2 4 4 5 6
1 3 4 3 3 6 5 7 8 7 7 9 9 10 10 12 12 12 8 8 5 4 9 8 5 6 8 10 10 11 11 9 6 3 3 1 -1 5 8 7 4 5 5 4 4 5 5 6 7
3 2 5 4 3 6 6 7 6 8 7 7 8 9 9 13 13 11 9 9 9 7 7 7 7 6 7 8 10 10 11 11 11 11 11 7 8 10 11 10 9 7 7 6 6 6 7 7 9
2 4 4 4 3 5 7 8 8 7 6 6 7 7 9 9 10 10 10 10 9 9 7 8 7 8 7 9 7 7 9 10 10 12 11 10 10 11 12 12 11 10 9 9 9 9 10 10 11
3 4 6 5 6 6 8 7 9 8 6 7 6 6 6 9 9 9 10 10 11 10 9 8 7 8 9 8 10 10 8 8 10 10 11 11 11 12 12 13 12 11 10 9 10 10 11 11 11
3 3 5 5 6 7 7 7 7 8 7 7 6 5 5 5 8 9 10 9 11 10 9 10 10 10 10 9 9 9 10 9 10 11 11 12 12 11 11 12 13 12 11 10 10 11 11 11 11
4 4 6 6 6 7 6 7 7 7 7 7 7 6 5 4 4 6 9 9 10 10 10 11 11 11 11 11 11 8 9 9 10 12 12 13 12 11 12 12 12 12 12 11 12 11 11 11 11
5 4 6 6 6 5 5 6 6 6 7 6 7 6 5 4 4 3 3 5 8 10 10 11 11 11 10 11 12 12 11 10 10 12 11 12 11 12 11 11 11 11 12 12 11 11 11 11 11
6 5 6 6 6 8 5 8 7 6 7 6 6 6 5 4 4 3 3 2 2 3 6 9 10 11 11 11 11 12 11 11 11 10 11 10 10 11 11 11 11 11 11 11 10 10 10 10 10
6 5 5 5 6 7 7 8 5 6 7 6 6 5 5 4 4 3 3 2 2 2 2 4 7 9 9 9 9 10 10 10 10 10 11 9 9 10 11 11 10 11 11 10 9 8 8 8 7
5 5 5 6 6 7 7 7 3 7 5 5 5 6 4 4 3 3 3 3 2 2 1 2 4 6 8 8 8 9 9 9 10 10 9 9 9 8 9 10 11 11 10 8 8 8 7 4 3
5 5 7 7 7 8 6 7 4 -1 -3 0 3 3 3 2 2 2 3 2 2 2 2 2 3 4 7 7 7 7 8 9 9 9 9 10 9 9 8 8 7 9 7 7 8 6 5 6 -0
5 5 7 8 7 7 3 6 2 -3 -2 -2 -2 1 2 2 1 2 3 2 2 3 3 3 3 4 5 6 5 7 8 7 8 7 8 9 9 10 10 10 9 7 7 8 7 6 2 -0 -1
3 5 1 3 2 5 3 -1 -2 -2 -1 -1 -1 -1 -1 -0 1 1 1 2 2 3 3 3 3 3 3 3 2 2 2 2 6 7 8 7 8 9 9 8 7 6 6 5 5 6 0 1 -0
-0 -1 2 3 6 5 2 1 1 -0 0 -1 -1 -1 -1 -1 -2 -2 -2 -3 -3 -3 -2 -1 1 2 2 2 3 2 2 1 1 2 5 6 7 7 8 7 7 7 6 6 5 2 3 -0 -1
2 2 1 1 2 4 4 0 -4 -3 -1 -0 -1 -1 -1 -1 -1 -1 -1 -2 -2 -3 -4 -5 -5 -4 -4 -5 -1 3 3 2 2 1 1 3 7 7 7 8 8 8 7 3 3 3 -0 -1 -0
3 3 -1 2 2 1 0 -0 -3 -3 -1 -1 -1 -1 -1 -1 -1 -1 -1 -1 -1 -2 -2 -2 -3 -4 -2 -2 -2 2 3 3 2 2 2 2 6 8 9 7 5 4 3 3 1 0 -0 -0 0
Wind_Speed
10 9 6 4 2 3 4 6 3 3 6 12 13 2 1 4 0 2 3 15 29 29 26 23 20 17 13 12 14 19 17 15 17 18 20 22 22 19 17 17 12 11 13 15 17 17 17 19 18
14 9 5 4 3 3 6 6 6 3 4 20 13 15 5 1 4 1 11 17 28 28 26 23 20 17 14 13 17 19 16 13 16 20 20 21 20 18 17 14 11 13 16 18 18 18 20 20 20
9 8 4 3 3 10 5 4 11 3 6 25 13 13 10 7 3 9 9 22 27 26 25 23 20 16 15 15 19 17 14 12 15 21 22 20 19 17 17 12 12 17 18 19 19 21 22 21 19
6 6 5 3 11 10 6 5 6 4 4 27 22 6 10 3 3 9 10 22 26 25 23 22 19 17 14 16 18 16 12 12 14 20 24 23 19 17 15 12 16 19 19 19 18 19 19 18 16
7 3 4 6 14 8 5 11 8 8 13 13 26 13 13 4 6 12 12 22 26 24 23 20 19 17 15 17 18 15 11 13 15 18 24 25 21 16 11 19 20 19 19 18 16 15 15 14 13
4 3 4 13 13 21 7 16 11 4 12 19 19 22 17 11 10 9 11 23 23 22 22 20 19 16 14 18 19 14 11 13 15 17 20 23 20 18 21 22 21 20 19 17 15 13 11 10 9
4 2 10 7 17 10 19 22 6 6 12 18 28 19 15 19 14 14 9 21 21 20 21 20 18 16 14 17 20 16 12 12 15 17 20 22 23 24 23 22 21 19 18 16 13 11 9 6 6
4 2 6 8 8 14 9 20 24 11 13 16 33 8 14 30 22 17 11 15 18 17 19 20 19 16 14 16 22 19 15 11 13 17 19 20 21 22 21 21 19 18 16 14 11 10 8 6 4
5 4 11 19 13 16 9 11 34 9 9 13 22 18 27 34 28 24 16 19 11 16 18 19 18 15 14 15 21 22 18 14 12 14 17 19 19 20 20 18 17 16 14 13 11 9 7 6 4
6 5 17 10 11 5 12 9 15 11 8 9 15 11 21 37 31 33 26 25 14 20 21 20 18 14 14 14 19 25 21 18 16 13 15 16 16 16 16 15 15 14 13 11 10 9 7 5 4
5 12 13 13 19 17 7 6 5 10 9 14 25 22 33 40 37 28 19 8 20 22 23 22 20 17 16 15 16 23 25 22 17 15 15 16 15 16 15 14 13 12 11 10 9 8 7 7 5
7 15 16 11 19 16 15 13 4 9 24 14 25 36 38 40 39 27 15 10 16 28 24 21 21 19 17 15 14 19 23 24 21 18 17 15 14 14 14 12 11 11 11 10 9 8 7 6 5
9 13 10 20 31 21 29 19 8 12 24 18 20 33 41 41 44 33 17 20 25 18 19 19 8 19 18 18 15 17 19 21 20 19 18 15 13 12 12 11 10 11 12 11 10 9 7 7 6
4 13 23 21 20 24 18 16 4 15 16 16 20 31 39 46 44 33 33 38 35 17 15 15 12 15 20 22 20 15 16 17 18 20 19 16 14 12 12 11 11 11 10 10 10 10 8 8 7
17 8 9 18 20 8 18 13 15 11 12 9 19 25 35 35 33 32 43 46 27 21 30 26 20 19 24 22 19 19 16 15 17 17 18 18 17 13 11 10 11 10 10 11 10 10 9 8 8
6 7 8 11 14 11 14 17 19 2 4 8 2 19 29 36 35 33 34 42 37 28 34 36 29 17 22 23 23 18 18 17 15 14 17 19 17 14 11 11 10 11 12 12 11 10 9 8 8
3 7 15 7 18 8 10 7 8 7 11 15 10 7 15 26 31 29 31 36 38 32 32 32 26 24 18 25 28 20 22 21 20 18 16 19 20 17 13 10 10 11 13 12 11 10 9 8 7
6 7 7 14 13 18 11 11 1 6 12 11 11 7 2 14 23 26 24 23 32 34 32 33 32 28 27 28 26 24 28 27 27 25 20 17 17 16 14 12 11 13 14 14 13 10 9 6 7
9 16 4 3 7 12 10 4 9 6 2 8 14 15 10 4 9 27 29 27 32 35 30 30 30 29 33 28 32 27 28 30 31 32 28 20 20 19 20 18 14 14 16 14 12 9 8 10 11
15 10 3 6 4 5 3 3 6 4 1 3 8 18 18 13 7 6 19 30 27 25 25 29 28 25 31 30 32 25 37 38 35 30 27 26 24 21 25 22 18 15 15 15 13 11 12 12 13
2 10 6 7 9 9 5 3 12 1 2 12 20 23 24 18 12 8 7 9 11 14 18 22 25 28 27 31 33 35 36 31 32 26 31 27 22 21 23 24 23 17 14 14 15 13 13 14 14
5 4 9 15 4 3 4 1 7 6 5 7 25 25 30 18 12 11 11 9 9 10 14 15 20 24 25 26 28 28 25 27 25 26 25 25 24 24 26 24 23 20 16 15 13 12 13 16 19
2 10 11 9 7 4 2 3 4 5 5 10 14 29 32 15 11 8 11 13 13 13 13 16 16 17 19 22 24 28 27 25 22 26 19 21 21 20 20 19 21 20 16 11 10 12 15 18 22
11 12 8 7 3 3 2 3 2 3 8 12 15 21 26 14 11 6 8 7 9 13 15 20 19 19 19 19 18 21 19 20 21 23 21 20 18 13 15 19 20 14 14 16 19 28 24 15 23
2 3 3 3 2 2 1 1 6 4 2 6 14 26 23 14 10 4 6 6 6 9 11 17 24 20 21 20 17 17 19 20 22 24 23 23 18 21 20 24 27 18 17 14 21 18 19 23 24
4 3 3 4 3 2 3 3 3 3 6 2 7 15 13 13 10 7 6 6 4 4 6 7 12 16 18 19 20 20 20 20 22 22 23 20 20 23 20 21 20 15 13 18 19 21 22 22 23
4 3 3 6 3 3 2 4 3 7 12 16 14 23 21 18 15 13 9 7 4 2 1 2 7 11 15 17 18 19 19 20 21 23 22 21 20 17 16 16 15 15 17 20 23 26 24 26 23
3 6 3 2 4 3 3 3 2 5 7 7 9 18 25 25 22 19 16 12 8 4 2 5 9 12 16 19 20 18 18 19 19 19 19 20 19 19 19 21 22 22 23 24 25 21 24 23 23
4 3 5 4 2 3 3 1 2 3 3 7 7 17 21 20 18 16 13 12 10 8 6 5 7 10 13 16 17 18 19 19 18 17 17 18 20 21 23 23 22 22 22 21 20 24 23 22 22
2 3 4 4 2 2 3 2 6 4 6 8 14 18 19 19 17 14 11 9 7 7 6 7 9 10 11 11 12 14 16 17 17 17 15 15 17 19 20 21 19 19 20 22 23 21 21 22 23
Wind_Direction
241 241 261 215 120 91 233 244 186 148 147 187 201 302 341 82 139 235 270 173 172 168 169 168 170 167 165 157 150 148 150 138 147 144 136 141 145 148 147 140 131 124 123 126 119 117 116 114 109
226 237 244 184 154 191 247 240 200 224 167 146 136 358 335 326 41 74 149 166 171 169 169 167 168 167 163 160 154 152 155 150 154 156 144 143 143 145 145 138 129 130 131 126 121 112 112 116 111
232 229 213 187 181 224 234 217 229 317 217 174 148 199 306 315 38 148 161 160 170 170 168 168 169 167 162 158 156 158 159 156 159 165 159 143 142 143 143 137 135 136 133 127 118 113 111 110 107
214 212 221 177 218 233 206 261 205 207 111 175 180 162 294 253 177 165 160 168 171 169 170 170 169 165 163 160 155 166 160 156 156 164 168 158 149 155 147 149 143 138 134 131 124 118 115 112 107
208 214 218 209 219 251 257 273 266 173 163 180 159 164 231 153 210 185 169 172 175 172 172 172 169 169 167 164 161 171 165 154 151 154 167 171 173 180 160 149 145 140 139 139 134 125 118 114 108
214 226 213 220 219 236 254 239 262 281 212 176 182 166 199 184 197 186 165 172 176 175 173 174 171 172 171 170 163 170 170 157 149 150 153 166 172 165 151 147 147 145 145 145 141 134 128 121 113
197 152 221 209 226 247 240 239 228 210 222 217 183 198 163 176 167 171 173 172 174 181 176 179 175 174 178 173 172 169 168 161 151 148 148 150 149 148 149 148 151 151 150 150 148 145 140 131 122
217 263 215 213 218 249 246 238 250 226 232 223 203 189 181 185 182 184 183 175 177 185 184 184 180 182 182 177 176 170 175 174 158 153 150 152 151 150 153 154 156 155 155 155 156 157 157 161 165
211 232 229 221 212 228 207 213 240 249 227 199 195 208 202 173 167 173 186 158 185 202 198 193 189 188 186 181 177 179 175 184 173 163 158 157 159 158 158 159 159 160 162 164 167 172 176 179 184
190 220 230 219 220 192 235 244 253 231 223 222 195 175 169 177 176 191 188 219 263 222 207 200 198 202 197 191 185 185 180 190 189 176 168 164 165 163 165 166 169 172 175 179 182 186 190 195 199
211 234 241 257 242 229 263 257 260 179 253 213 198 175 167 168 178 171 172 204 300 217 209 203 204 207 204 202 195 190 191 189 198 185 177 173 176 177 177 180 182 186 190 194 199 199 201 204 212
259 256 252 279 265 226 237 265 282 190 245 230 220 200 176 174 173 177 175 220 230 203 203 196 213 213 209 208 206 199 198 198 197 196 190 186 189 191 189 189 195 203 207 211 213 212 215 214 223
239 252 283 248 261 275 237 232 270 262 236 263 217 197 184 190 183 183 189 164 178 193 220 234 237 217 218 214 204 205 202 205 206 206 205 202 202 201 203 209 215 219 219 219 220 217 215 222 228
241 252 255 272 279 257 252 223 197 268 246 233 207 200 195 185 190 193 178 165 159 157 191 232 279 223 232 227 203 205 209 209 209 212 216 216 214 216 218 231 232 223 220 218 217 219 219 225 233
236 289 291 237 250 274 233 248 230 272 274 222 197 200 195 191 186 189 183 170 185 191 181 185 182 230 229 221 227 210 209 214 214 218 226 229 224 222 226 229 229 228 224 221 217 220 227 234 244
204 221 248 218 212 239 174 229 214 243 333 18 260 208 205 194 189 193 194 192 193 182 182 199 192 203 221 204 226 233 222 216 222 229 234 227 219 218 226 232 233 231 229 227 227 231 235 242 258
216 217 213 194 196 232 183 242 147 125 56 30 4 10 213 218 211 208 194 201 205 202 186 201 204 205 209 203 219 238 239 242 237 229 235 232 225 225 227 234 235 235 233 230 231 234 242 254 272
199 195 205 190 180 202 198 264 324 86 79 21 2 1 44 229 232 207 203 202 205 206 207 219 216 227 215 207 211 221 240 243 247 240 227 224 228 228 235 241 238 237 235 234 232 240 255 267 281
282 207 174 178 173 172 194 168 284 197 151 12 360 351 315 234 195 203 213 206 196 214 214 214 216 225 225 216 217 231 235 238 250 240 241 227 235 243 239 244 242 242 241 239 237 233 249 264 276
237 153 116 49 134 94 137 56 259 247 242 238 315 310 303 283 218 191 199 205 219 214 220 221 226 226 234 232 226 227 225 233 243 235 239 231 238 254 242 237 242 245 243 238 229 239 251 262 271
133 151 159 121 109 85 74 291 291 202 224 230 260 278 285 280 268 222 194 192 220 212 232 226 226 227 228 238 238 235 238 251 245 239 250 245 242 244 250 243 240 242 239 237 231 240 252 266 275
120 162 145 133 96 89 84 304 242 208 200 210 238 262 268 272 266 247 233 221 217 228 235 233 232 230 235 234 239 250 246 252 260 255 245 249 250 244 240 247 245 236 235 239 244 257 268 276 280
81 94 91 101 93 96 108 266 268 203 231 231 225 244 255 257 261 259 249 251 253 243 239 240 236 229 234 245 250 248 246 249 253 263 249 256 253 251 253 263 249 245 239 233 261 265 280 288 289
144 92 70 58 56 89 317 225 278 184 222 229 235 245 249 239 250 257 230 244 246 234 240 234 238 236 237 240 248 261 264 261 254 259 258 264 266 271 253 264 258 248 277 283 276 268 269 297 286
173 104 75 40 52 21 59 115 253 285 286 238 210 217 218 213 220 218 185 207 234 243 253 241 236 240 244 255 264 262 261 261 263 259 260 261 263 258 246 245 258 238 235 253 250 253 259 260 268
129 47 137 127 130 137 248 249 316 349 347 281 225 181 186 183 173 169 190 218 236 271 279 256 238 238 247 256 261 259 261 260 263 261 263 263 261 255 253 242 239 236 239 249 257 262 261 270 272
177 87 270 81 41 98 282 314 51 10 30 66 89 109 108 109 109 110 115 114 99 74 323 267 245 244 252 257 260 262 261 260 259 261 262 266 263 255 248 234 236 235 234 245 246 260 272 278 279
138 151 99 28 139 98 324 318 350 15 42 47 65 88 96 96 97 97 96 94 90 80 319 289 275 265 265 266 264 265 263 263 266 266 262 259 254 245 234 234 230 235 244 250 246 264 281 279 281
21 34 55 101 60 126 137 260 39 332 70 99 77 81 86 91 91 90 84 76 62 46 24 353 314 292 284 273 269 264 264 266 268 268 265 257 248 247 244 240 236 236 236 244 267 272 273 277 281
229 144 125 108 223 68 125 253 337 192 118 108 90 86 86 83 80 76 68 55 39 26 359 331 325 320 306 289 279 273 267 264 265 265 263 255 247 240 238 235 236 242 253 261 264 269 275 278 279
Height
1503 1505 1507 1510 1518 1519 1517 1504 1491 1492 1493 1492 1498 1503 1503 1502 1504 1512 1502 1503 1508 1511 1514 1518 1521 1524 1526 1528 1528 1530 1532 1534 1535 1537 1539 1540 1543 1545 1546 1548 1549 1550 1551 1553 1553 1554 1556 1557 1558
1501 1503 1506 1506 1514 1518 1512 1497 1492 1489 1488 1492 1494 1504 1504 1503 1504 1504 1504 1504 1509 1513 1516 1519 1522 1524 1526 1528 1530 1531 1533 1535 1536 1538 1540 1542 1544 1546 1548 1549 1550 1551 1553 1554 1555 1556 1557 1559 1560
1500 1502 1504 1504 1507 1508 1509 1493 1490 1488 1487 1489 1495 1505 1507 1503 1504 1506 1506 1506 1510 1513 1517 1519 1522 1524 1526 1528 1531 1533 1534 1535 1537 1538 1541 1544 1545 1547 1549 1551 1552 1553 1554 1556 1557 1558 1560 1561 1562
1499 1501 1503 1503 1504 1502 1497 1490 1487 1489 1489 1487 1491 1502 1508 1506 1506 1506 1507 1508 1511 1515 1518 1520 1523 1525 1527 1529 1531 1534 1535 1536 1537 1538 1540 1544 1546 1548 1549 1552 1553 1555 1556 1558 1559 1560 1562 1563 1563
1497 1498 1501 1500 1499 1498 1491 1489 1486 1484 1486 1488 1493 1500 1509 1507 1507 1507 1507 1509 1512 1515 1518 1521 1523 1525 1527 1530 1532 1535 1536 1537 1538 1539 1540 1543 1546 1548 1550 1552 1554 1556 1558 1559 1561 1562 1563 1564 1565
1496 1495 1497 1496 1496 1492 1490 1488 1487 1484 1484 1486 1491 1492 1502 1505 1505 1505 1507 1510 1513 1517 1518 1522 1523 1525 1528 1531 1533 1535 1537 1538 1539 1540 1541 1543 1545 1548 1551 1553 1555 1557 1559 1560 1562 1563 1564 1565 1566
1494 1494 1490 1491 1491 1493 1489 1487 1483 1485 1482 1482 1481 1489 1499 1504 1502 1505 1508 1512 1515 1519 1519 1522 1523 1525 1528 1530 1533 1535 1537 1540 1540 1541 1543 1545 1546 1549 1552 1554 1556 1558 1560 1562 1563 1564 1565 1566 1567
1491 1490 1487 1485 1490 1485 1481 1486 1480 1481 1482 1480 1483 1484 1489 1494 1498 1501 1505 1509 1517 1519 1521 1523 1523 1525 1527 1530 1533 1536 1537 1540 1541 1543 1544 1547 1548 1550 1553 1555 1557 1559 1561 1562 1564 1565 1566 1567 1567
1489 1491 1485 1480 1485 1478 1478 1481 1478 1478 1478 1476 1477 1477 1479 1488 1493 1501 1506 1509 1513 1520 1522 1523 1523 1525 1527 1530 1532 1536 1538 1540 1542 1544 1545 1547 1549 1550 1553 1556 1558 1560 1562 1563 1564 1566 1566 1567 1568
1488 1487 1475 1470 1472 1476 1478 1477 1477 1478 1476 1474 1473 1477 1476 1484 1490 1492 1503 1506 1520 1521 1521 1522 1523 1525 1527 1529 1532 1535 1537 1540 1542 1544 1546 1548 1551 1552 1554 1556 1558 1560 1561 1563 1564 1565 1566 1567 1568
1482 1477 1472 1470 1471 1473 1475 1474 1475 1473 1479 1470 1468 1473 1475 1477 1489 1491 1498 1506 1513 1516 1520 1521 1523 1525 1527 1530 1532 1533 1537 1539 1542 1544 1547 1548 1551 1552 1553 1555 1557 1559 1561 1562 1564 1565 1566 1566 1567
1481 1473 1475 1472 1472 1473 1474 1474 1473 1472 1472 1467 1467 1469 1471 1475 1486 1486 1487 1500 1508 1515 1516 1517 1522 1525 1527 1530 1531 1533 1536 1539 1541 1544 1546 1547 1550 1552 1554 1555 1557 1558 1560 1561 1563 1564 1565 1566 1567
1477 1473 1472 1471 1472 1471 1471 1469 1471 1469 1467 1465 1462 1467 1466 1469 1477 1479 1480 1487 1496 1513 1512 1513 1515 1520 1525 1528 1530 1533 1535 1537 1540 1543 1546 1547 1549 1552 1553 1555 1556 1557 1558 1559 1561 1562 1564 1565 1565
1471 1471 1471 1471 1469 1468 1469 1466 1472 1465 1466 1460 1460 1460 1463 1466 1473 1478 1479 1485 1498 1507 1514 1518 1517 1519 1523 1526 1528 1531 1534 1536 1539 1541 1545 1547 1549 1551 1552 1553 1555 1556 1557 1558 1559 1561 1561 1563 1564
1471 1474 1469 1466 1467 1466 1467 1466 1466 1466 1464 1457 1461 1460 1463 1468 1472 1477 1478 1484 1486 1496 1503 1507 1514 1515 1521 1524 1528 1529 1533 1535 1536 1539 1543 1545 1547 1549 1550 1551 1553 1554 1555 1556 1558 1559 1560 1561 1562
1469 1472 1468 1457 1462 1464 1466 1457 1465 1464 1461 1454 1459 1463 1463 1464 1469 1478 1486 1486 1486 1491 1497 1504 1506 1512 1515 1520 1527 1529 1531 1532 1534 1536 1539 1542 1544 1546 1547 1548 1550 1552 1553 1554 1556 1557 1558 1559 1560
1464 1461 1464 1456 1454 1458 1458 1462 1459 1460 1456 1455 1461 1462 1463 1465 1470 1476 1480 1483 1485 1490 1497 1501 1506 1509 1513 1518 1521 1525 1529 1531 1532 1534 1536 1537 1540 1542 1544 1545 1547 1548 1550 1551 1553 1555 1556 1557 1558
1456 1458 1452 1449 1450 1455 1456 1454 1456 1456 1455 1459 1462 1464 1468 1467 1468 1472 1477 1479 1484 1490 1493 1498 1502 1510 1513 1515 1519 1523 1525 1526 1528 1531 1533 1535 1537 1539 1541 1542 1543 1544 1546 1549 1550 1552 1554 1555 1557
1452 1451 1445 1442 1442 1450 1455 1463 1462 1461 1459 1459 1458 1461 1467 1471 1472 1472 1475 1479 1482 1486 1492 1495 1500 1504 1510 1512 1514 1520 1519 1521 1523 1526 1528 1532 1534 1536 1537 1540 1541 1542 1544 1546 1547 1549 1551 1553 1554
1444 1441 1446 1447 1443 1449 1457 1458 1464 1460 1455 1459 1461 1465 1469 1469 1473 1473 1472 1476 1481 1484 1488 1492 1495 1500 1504 1507 1507 1511 1515 1518 1519 1523 1525 1526 1529 1531 1532 1535 1537 1539 1541 1544 1545 1546 1549 1550 1552
1439 1438 1444 1446 1454 1460 1457 1461 1469 1459 1458 1462 1463 1469 1469 1470 1469 1473 1475 1475 1477 1477 1483 1487 1491 1494 1498 1501 1505 1508 1512 1515 1516 1518 1517 1521 1524 1527 1528 1530 1532 1535 1537 1540 1542 1543 1545 1547 1548
1439 1439 1439 1446 1452 1461 1463 1467 1465 1457 1457 1458 1463 1465 1466 1468 1468 1468 1471 1475 1479 1480 1481 1484 1488 1492 1494 1498 1501 1498 1505 1508 1511 1513 1514 1514 1517 1520 1523 1526 1528 1531 1533 1536 1538 1540 1542 1543 1544
1443 1438 1443 1450 1460 1461 1470 1473 1458 1453 1451 1453 1456 1458 1461 1463 1464 1466 1469 1473 1475 1477 1481 1485 1487 1490 1492 1494 1498 1500 1502 1504 1506 1510 1510 1511 1514 1514 1518 1520 1524 1528 1529 1531 1534 1536 1539 1539 1540
1443 1444 1447 1454 1459 1467 1473 1468 1454 1456 1446 1448 1453 1453 1456 1461 1462 1465 1467 1469 1473 1476 1479 1483 1485 1487 1489 1493 1496 1497 1497 1500 1502 1505 1505 1506 1508 1509 1513 1517 1519 1519 1523 1527 1530 1533 1532 1532 1533
1444 1445 1459 1463 1464 1464 1469 1469 1455 1450 1449 1447 1447 1454 1456 1459 1462 1463 1467 1470 1472 1473 1474 1477 1482 1485 1485 1488 1491 1493 1497 1497 1499 1501 1501 1502 1501 1506 1508 1511 1512 1516 1520 1522 1527 1528 1528 1529 1530
1447 1451 1452 1456 1465 1469 1466 1464 1454 1452 1448 1445 1444 1450 1455 1459 1462 1464 1466 1469 1472 1471 1474 1475 1476 1480 1483 1486 1488 1490 1491 1493 1495 1496 1496 1496 1497 1501 1503 1507 1510 1511 1514 1516 1522 1524 1524 1525 1525
1448 1456 1447 1455 1463 1471 1464 1455 1451 1450 1450 1451 1455 1453 1455 1459 1461 1464 1469 1470 1470 1471 1473 1474 1476 1478 1481 1484 1485 1485 1486 1487 1490 1491 1489 1491 1494 1497 1498 1503 1506 1508 1509 1512 1515 1518 1520 1519 1519
1441 1448 1457 1467 1468 1468 1468 1466 1464 1459 1459 1458 1458 1460 1459 1461 1465 1468 1470 1472 1473 1472 1472 1472 1474 1474 1476 1478 1480 1481 1482 1483 1483 1484 1484 1487 1488 1493 1495 1497 1499 1503 1506 1508 1509 1510 1512 1513 1514
1451 1451 1458 1460 1468 1463 1470 1465 1464 1464 1463 1463 1463 1463 1463 1466 1469 1471 1473 1473 1472 1472 1474 1475 1474 1473 1473 1474 1474 1476 1476 1477 1478 1478 1480 1482 1485 1488 1489 1492 1496 1499 1500 1503 1504 1505 1506 1506 1507
1453 1453 1457 1466 1469 1484 1482 1472 1466 1462 1464 1464 1465 1465 1465 1467 1468 1470 1473 1473 1475 1476 1478 1477 1474 1472 1472 1471 1470 1471 1473 1474 1474 1476 1477 1478 1480 1482 1485 1488 1492 1496 1497 1498 1499 1500 1500 1500 1500